Temp
66 65 65 66 66 66 65 64 64 62 60 59 58 58 58 58 59 58 58 59 60 59 59 60 59 59 58 57 56 56 54 53 53 52 52 53 51 51 51 50 50 50
65 65 65 65 64 64 65 65 64 62 60 59 58 58 58 58 58 59 58 59 59 59 59 58 58 58 57 56 55 54 53 53 53 54 52 52 51 51 50 50 49 49
65 64 64 63 63 64 64 64 63 61 60 59 59 58 58 58 58 58 58 57 57 57 58 58 57 57 56 55 54 54 53 53 52 53 53 51 50 51 50 49 49 49
64 64 64 64 63 63 64 63 61 61 60 60 59 59 59 59 58 57 56 58 56 57 57 57 55 55 54 54 53 53 53 53 52 53 52 51 51 51 50 50 50 50
64 64 64 63 63 63 63 63 61 61 61 59 58 58 58 57 57 56 57 57 56 55 56 55 54 54 54 53 53 52 52 52 51 52 51 50 50 51 49 50 49 49
64 64 64 63 63 62 62 62 62 62 61 59 58 59 58 58 57 57 57 56 55 55 54 54 54 53 54 53 52 52 51 51 51 52 51 50 49 49 50 48 48 48
65 64 63 63 62 62 62 62 62 62 60 59 59 58 58 57 57 57 56 56 55 55 54 53 53 53 53 52 52 51 51 51 51 51 51 49 50 48 48 48 48 48
65 64 63 62 62 62 62 62 62 61 60 59 58 58 58 58 57 56 56 55 54 54 54 54 54 53 52 53 52 51 51 52 51 51 50 49 49 48 48 50 48 48
64 63 62 62 62 61 62 62 61 61 60 59 58 57 58 58 57 56 55 55 54 54 54 53 54 53 52 53 52 52 52 51 51 50 50 49 49 48 49 47 48 47
63 63 62 62 61 61 61 61 61 61 61 59 58 58 58 57 57 56 55 54 54 54 54 53 53 52 52 53 53 52 52 51 49 49 49 49 49 49 48 48 47 47
63 62 62 62 61 61 61 61 61 61 60 60 59 58 57 57 56 56 55 55 54 54 54 53 53 53 53 52 51 51 51 50 50 50 49 50 49 49 51 48 48 47
62 62 62 61 61 61 61 61 61 60 60 60 60 58 57 57 56 56 56 55 54 54 54 53 53 53 53 52 52 51 51 50 50 50 50 50 49 49 48 47 48 47
62 62 62 61 61 61 61 61 61 60 61 60 59 58 57 56 56 56 55 55 54 54 54 53 53 53 52 51 52 51 51 51 50 49 49 49 48 48 48 48 48 48
63 62 62 61 61 61 61 61 61 60 60 60 59 57 57 57 56 56 55 55 54 54 53 53 53 52 51 51 52 52 51 50 50 49 49 48 48 48 48 48 47 47
63 62 62 61 61 60 60 60 60 60 60 59 58 58 58 57 56 56 55 54 53 53 53 53 53 52 52 52 52 51 50 50 50 50 49 48 48 47 47 47 46 45
62 61 61 60 60 60 60 60 60 60 59 58 57 58 57 56 55 55 55 54 53 53 52 53 53 53 55 55 54 52 50 51 50 49 49 48 48 46 45 46 46 46
61 61 60 60 60 60 60 60 60 60 58 58 57 57 56 56 55 54 54 54 54 53 52 52 53 54 51 47 48 51 52 50 50 49 48 48 47 46 46 47 47 48
61 60 60 59 59 59 60 61 61 60 60 59 58 57 55 55 54 54 53 53 53 53 52 52 52 53 46 46 47 48 51 51 49 48 48 47 48 47 47 48 48 49
61 60 59 59 59 60 61 61 61 60 60 59 58 57 55 54 54 53 52 52 53 52 51 51 51 47 45 46 46 46 47 50 49 49 48 48 48 48 47 47 48 49
60 60 59 59 60 60 60 60 60 60 60 60 58 56 55 54 53 52 52 52 52 52 50 50 49 47 45 46 46 45 45 47 48 49 49 48 48 48 47 47 48 49
60 60 59 60 60 60 60 60 60 60 60 59 58 57 56 54 52 51 51 52 51 51 49 48 49 46 45 45 45 45 45 47 49 50 49 48 48 48 47 48 49 49
60 59 59 60 60 60 60 59 60 59 59 58 58 57 57 56 55 54 53 52 51 50 49 47 46 44 44 44 44 44 46 51 49 49 48 48 49 49 49 50 50 49
60 59 59 59 60 59 59 59 59 59 59 59 58 57 56 56 55 54 54 52 51 50 49 46 44 43 43 44 44 44 47 49 49 49 48 48 51 51 51 51 50 49
60 60 59 59 59 59 59 59 59 59 59 58 58 56 55 55 55 54 53 52 51 50 50 47 45 44 43 44 44 45 50 49 49 50 50 51 51 51 50 49 50 55
60 60 59 59 59 59 60 59 59 58 58 58 58 57 56 56 55 53 51 51 52 51 52 49 46 45 43 43 44 45 49 49 48 49 48 48 49 50 50 49 48 54
60 60 59 59 59 59 60 59 59 57 57 57 57 57 55 54 54 52 51 50 50 50 50 49 48 46 45 42 45 45 47 51 49 49 49 48 48 49 46 44 46 48
MSLP
1014.31 1014.63 1015.03 1015.31 1015.63 1015.87 1016.19 1016.55 1016.91 1017.27 1017.63 1017.83 1018.03 1018.35 1018.47 1018.63 1018.75 1018.83 1018.99 1019.15 1019.27 1019.39 1019.51 1019.59 1019.63 1019.71 1019.95 1020.19 1020.43 1020.59 1020.79 1020.95 1021.11 1021.23 1021.27 1021.39 1021.67 1021.75 1021.99 1022.19 1022.27 1022.35
1014.19 1014.47 1014.83 1015.19 1015.59 1015.91 1016.15 1016.31 1016.71 1017.11 1017.55 1017.79 1017.99 1018.27 1018.47 1018.59 1018.79 1018.87 1019.07 1019.27 1019.43 1019.55 1019.67 1019.83 1019.95 1020.03 1020.11 1020.27 1020.55 1020.75 1020.99 1021.11 1021.27 1021.39 1021.43 1021.59 1021.95 1022.03 1022.27 1022.35 1022.43 1022.55
1014.07 1014.43 1014.75 1015.11 1015.47 1015.83 1016.11 1016.39 1016.71 1017.15 1017.47 1017.75 1017.99 1018.23 1018.47 1018.63 1018.83 1019.03 1019.19 1019.31 1019.51 1019.71 1019.83 1019.95 1020.11 1020.31 1020.39 1020.47 1020.63 1020.83 1021.07 1021.23 1021.47 1021.59 1021.55 1021.91 1022.15 1022.27 1022.51 1022.55 1022.59 1022.51
1013.95 1014.19 1014.55 1014.95 1015.27 1015.67 1015.99 1016.43 1016.87 1017.19 1017.47 1017.83 1018.07 1018.23 1018.43 1018.67 1018.91 1019.11 1019.31 1019.43 1019.63 1019.75 1019.95 1020.11 1020.31 1020.47 1020.59 1020.63 1020.75 1021.03 1021.23 1021.43 1021.63 1021.59 1021.83 1022.23 1022.39 1022.47 1022.59 1022.63 1022.63 1022.63
1013.83 1014.19 1014.51 1014.83 1015.19 1015.51 1015.87 1016.35 1016.79 1017.11 1017.35 1017.67 1018.03 1018.27 1018.47 1018.75 1018.99 1019.19 1019.35 1019.51 1019.63 1019.87 1019.99 1020.23 1020.43 1020.55 1020.67 1020.79 1020.91 1021.19 1021.39 1021.63 1021.71 1021.75 1022.07 1022.35 1022.59 1022.63 1022.75 1022.71 1022.63 1022.63
1013.75 1014.03 1014.39 1014.75 1015.11 1015.47 1015.91 1016.23 1016.59 1016.91 1017.31 1017.67 1017.95 1018.19 1018.47 1018.71 1018.95 1019.11 1019.35 1019.55 1019.71 1019.91 1020.11 1020.31 1020.51 1020.67 1020.75 1020.91 1021.11 1021.31 1021.51 1021.67 1021.83 1021.95 1022.23 1022.47 1022.67 1022.79 1022.83 1022.83 1022.75 1022.75
1013.67 1014.03 1014.43 1014.71 1015.11 1015.43 1015.83 1016.19 1016.47 1016.83 1017.23 1017.51 1017.91 1018.19 1018.47 1018.75 1018.91 1019.11 1019.35 1019.55 1019.71 1019.91 1020.15 1020.39 1020.59 1020.75 1020.87 1021.03 1021.23 1021.47 1021.63 1021.71 1021.95 1022.15 1022.35 1022.63 1022.67 1022.83 1022.91 1022.87 1022.87 1022.95
1013.51 1013.91 1014.31 1014.67 1015.07 1015.43 1015.75 1016.11 1016.43 1016.79 1017.15 1017.55 1017.83 1018.19 1018.39 1018.63 1018.87 1019.11 1019.35 1019.55 1019.75 1019.95 1020.19 1020.43 1020.63 1020.79 1020.95 1021.07 1021.27 1021.47 1021.67 1021.87 1022.07 1022.23 1022.43 1022.63 1022.67 1022.71 1022.83 1022.95 1023.03 1023.07
1013.43 1013.87 1014.27 1014.63 1014.99 1015.35 1015.67 1015.99 1016.43 1016.79 1017.07 1017.43 1017.79 1018.19 1018.43 1018.59 1018.83 1019.07 1019.31 1019.51 1019.75 1019.95 1020.19 1020.43 1020.63 1020.83 1021.03 1021.11 1021.27 1021.39 1021.59 1021.87 1022.11 1022.27 1022.35 1022.47 1022.51 1022.63 1022.75 1022.95 1022.99 1023.15
1013.39 1013.79 1014.23 1014.59 1014.95 1015.23 1015.55 1015.91 1016.31 1016.67 1017.03 1017.43 1017.79 1018.11 1018.39 1018.63 1018.79 1018.99 1019.27 1019.51 1019.75 1019.99 1020.19 1020.39 1020.63 1020.87 1021.03 1021.11 1021.27 1021.43 1021.63 1021.91 1022.19 1022.31 1022.39 1022.43 1022.47 1022.59 1022.75 1022.87 1023.03 1023.27
1013.31 1013.71 1014.11 1014.51 1014.83 1015.15 1015.47 1015.87 1016.27 1016.59 1016.99 1017.35 1017.75 1018.03 1018.27 1018.55 1018.83 1018.99 1019.23 1019.47 1019.71 1019.91 1020.11 1020.35 1020.59 1020.79 1020.99 1021.19 1021.39 1021.55 1021.71 1021.99 1022.15 1022.27 1022.35 1022.43 1022.51 1022.59 1022.71 1022.87 1023.11 1023.27
1013.15 1013.59 1013.99 1014.39 1014.75 1015.07 1015.39 1015.79 1016.19 1016.51 1016.87 1017.27 1017.55 1017.87 1018.23 1018.47 1018.67 1018.91 1019.11 1019.39 1019.67 1019.87 1020.07 1020.31 1020.55 1020.75 1020.95 1021.19 1021.43 1021.63 1021.83 1021.99 1022.11 1022.19 1022.31 1022.43 1022.51 1022.63 1022.79 1022.95 1023.03 1023.15
1012.95 1013.35 1013.79 1014.23 1014.63 1014.95 1015.27 1015.71 1016.15 1016.47 1016.79 1017.11 1017.43 1017.71 1018.07 1018.39 1018.67 1018.83 1019.11 1019.35 1019.63 1019.83 1020.07 1020.27 1020.47 1020.71 1020.99 1021.23 1021.43 1021.59 1021.75 1021.91 1022.03 1022.19 1022.35 1022.51 1022.63 1022.71 1022.87 1023.03 1023.07 1022.99
1012.75 1013.19 1013.67 1014.11 1014.51 1014.83 1015.19 1015.67 1016.07 1016.43 1016.71 1017.03 1017.39 1017.75 1017.99 1018.23 1018.47 1018.75 1019.07 1019.31 1019.59 1019.79 1020.03 1020.23 1020.47 1020.75 1020.99 1021.19 1021.35 1021.51 1021.67 1021.87 1022.03 1022.15 1022.39 1022.59 1022.75 1022.91 1023.07 1023.19 1023.31 1023.47
1012.67 1013.19 1013.63 1014.07 1014.47 1014.83 1015.23 1015.67 1016.03 1016.35 1016.67 1016.99 1017.31 1017.63 1017.87 1018.11 1018.39 1018.67 1019.03 1019.31 1019.59 1019.79 1020.03 1020.23 1020.43 1020.63 1020.87 1021.03 1021.23 1021.47 1021.63 1021.79 1021.95 1022.15 1022.35 1022.59 1022.83 1023.07 1023.23 1023.35 1023.47 1023.51
1012.51 1013.11 1013.59 1013.99 1014.43 1014.79 1015.15 1015.59 1015.95 1016.27 1016.63 1016.95 1017.23 1017.47 1017.75 1018.07 1018.35 1018.67 1018.95 1019.19 1019.51 1019.75 1019.99 1020.19 1020.35 1020.55 1020.71 1020.79 1021.03 1021.27 1021.55 1021.71 1021.91 1022.11 1022.35 1022.55 1022.83 1023.11 1023.35 1023.43 1023.43 1023.51
1012.43 1013.03 1013.55 1013.99 1014.27 1014.63 1015.07 1015.47 1015.83 1016.15 1016.51 1016.83 1017.15 1017.43 1017.67 1017.95 1018.31 1018.63 1018.87 1019.11 1019.35 1019.63 1019.87 1020.07 1020.27 1020.43 1020.51 1020.75 1020.95 1021.15 1021.35 1021.59 1021.75 1022.07 1022.35 1022.63 1022.83 1022.99 1023.27 1023.43 1023.51 1023.47
1012.43 1012.95 1013.47 1013.83 1014.15 1014.47 1014.91 1015.27 1015.55 1015.95 1016.31 1016.63 1016.99 1017.35 1017.63 1017.87 1018.23 1018.47 1018.75 1019.03 1019.27 1019.55 1019.75 1019.95 1020.19 1020.23 1020.51 1020.71 1020.91 1021.07 1021.23 1021.47 1021.75 1022.07 1022.43 1022.63 1022.75 1022.91 1023.19 1023.35 1023.51 1023.55
1012.31 1012.83 1013.31 1013.71 1013.99 1014.35 1014.79 1015.07 1015.35 1015.75 1016.11 1016.47 1016.83 1017.07 1017.47 1017.79 1018.07 1018.43 1018.71 1018.95 1019.15 1019.43 1019.71 1019.91 1020.07 1020.23 1020.43 1020.63 1020.83 1021.03 1021.19 1021.43 1021.79 1022.07 1022.35 1022.55 1022.67 1022.87 1023.11 1023.31 1023.47 1023.55
1012.23 1012.67 1013.15 1013.51 1013.79 1014.27 1014.67 1014.91 1015.19 1015.51 1015.83 1016.19 1016.59 1017.03 1017.31 1017.67 1017.99 1018.27 1018.63 1018.87 1019.07 1019.31 1019.59 1019.87 1019.99 1020.31 1020.39 1020.59 1020.79 1020.99 1021.19 1021.43 1021.79 1022.03 1022.27 1022.47 1022.63 1022.83 1023.07 1023.27 1023.35 1023.43
1012.15 1012.51 1012.99 1013.35 1013.71 1014.19 1014.51 1014.79 1015.03 1015.39 1015.75 1016.03 1016.35 1016.75 1017.11 1017.43 1017.83 1018.19 1018.51 1018.71 1018.99 1019.27 1019.55 1019.83 1019.99 1020.27 1020.39 1020.51 1020.75 1020.95 1021.19 1021.39 1021.75 1021.99 1022.23 1022.39 1022.55 1022.71 1022.87 1023.03 1023.15 1023.27
1011.87 1012.43 1012.87 1013.23 1013.63 1014.03 1014.35 1014.63 1014.91 1015.15 1015.51 1015.83 1016.11 1016.55 1016.83 1017.19 1017.63 1017.91 1018.31 1018.67 1018.99 1019.27 1019.51 1019.75 1020.11 1020.27 1020.35 1020.47 1020.67 1020.87 1021.07 1021.31 1021.55 1021.75 1022.07 1022.35 1022.55 1022.67 1022.79 1022.83 1022.91 1023.03
1011.75 1012.19 1012.75 1013.11 1013.47 1013.87 1014.15 1014.39 1014.67 1015.03 1015.35 1015.59 1015.91 1016.35 1016.75 1017.15 1017.47 1017.83 1018.15 1018.55 1018.95 1019.19 1019.35 1019.75 1020.11 1020.39 1020.39 1020.39 1020.51 1020.75 1020.95 1021.27 1021.47 1021.67 1021.95 1022.23 1022.39 1022.55 1022.67 1022.71 1022.79 1022.91
1011.59 1011.99 1012.63 1012.99 1013.27 1013.59 1013.83 1014.15 1014.47 1014.79 1015.11 1015.35 1015.59 1016.23 1016.67 1016.99 1017.39 1017.83 1018.23 1018.47 1018.71 1019.03 1019.15 1019.51 1019.99 1020.27 1020.39 1020.31 1020.39 1020.59 1020.67 1021.07 1021.35 1021.47 1021.79 1022.11 1022.39 1022.59 1022.59 1022.59 1022.67 1022.75
1011.43 1011.91 1012.31 1012.71 1013.03 1013.39 1013.63 1013.99 1014.27 1014.63 1014.99 1015.31 1015.55 1015.91 1016.39 1016.87 1017.27 1017.75 1018.31 1018.59 1018.67 1018.79 1019.03 1019.19 1019.79 1020.19 1020.39 1020.31 1020.31 1020.47 1020.71 1021.07 1021.27 1021.51 1021.75 1021.99 1022.11 1022.31 1022.43 1022.47 1022.63 1022.59
1011.11 1011.59 1012.03 1012.43 1012.79 1013.23 1013.59 1013.91 1014.27 1014.71 1015.07 1015.35 1015.67 1015.91 1016.47 1016.95 1017.35 1017.71 1018.15 1018.51 1018.75 1018.91 1019.15 1019.27 1019.59 1020.15 1020.43 1020.47 1020.27 1020.35 1020.55 1020.83 1021.15 1021.39 1021.59 1021.79 1021.95 1022.03 1022.39 1022.51 1022.47 1022.55
Wind_Speed
11 10 11 10 10 9 10 10 8 8 6 6 7 6 7 5 5 6 6 6 6 6 6 6 7 7 6 6 6 6 6 6 6 5 7 8 7 7 8 6 6 6
12 11 9 9 8 8 8 9 9 9 7 7 6 6 5 6 5 6 6 6 6 6 5 5 5 6 7 7 6 7 6 6 6 4 8 8 6 7 7 6 6 4
11 11 11 11 11 11 9 8 8 8 8 7 7 6 6 5 6 5 6 6 6 6 6 6 6 6 6 6 6 6 6 7 7 5 8 7 6 7 5 5 5 5
11 12 11 11 10 11 9 9 8 8 7 7 7 6 6 6 6 6 6 6 7 6 6 6 6 6 6 6 7 6 6 6 5 7 8 6 5 6 5 5 5 5
12 11 10 10 9 10 10 10 10 9 9 8 7 6 7 7 7 6 6 6 6 6 6 7 6 6 6 6 6 7 6 6 6 7 8 7 4 5 4 5 5 6
10 10 10 11 11 11 10 10 10 10 9 9 8 7 7 8 7 7 7 7 6 7 6 6 6 5 6 6 6 6 6 7 6 7 7 7 5 4 4 4 5 5
12 11 11 10 11 10 10 10 10 10 8 8 8 8 8 8 8 8 7 7 7 6 7 6 6 6 6 6 7 6 6 7 6 7 7 5 5 5 4 4 5 5
12 11 11 10 11 10 10 10 10 9 9 9 10 8 9 9 8 7 7 7 7 7 7 7 7 7 6 7 7 8 6 5 7 7 7 6 5 6 5 5 5 6
12 11 11 12 12 10 11 10 10 9 9 10 9 9 7 8 8 8 8 7 7 7 7 7 7 7 6 7 7 8 8 6 6 7 7 7 7 6 6 5 5 5
12 11 12 12 11 10 11 10 10 10 9 10 9 8 9 7 8 8 7 7 7 7 7 7 7 6 6 7 8 8 8 7 6 6 6 6 7 6 6 5 6 6
13 12 12 12 11 10 12 11 11 10 9 10 10 9 8 8 7 7 8 7 8 8 8 8 7 7 7 6 6 5 7 7 6 6 6 6 6 6 6 6 5 6
13 12 13 12 11 11 12 11 10 10 10 9 10 10 8 8 9 8 8 8 7 7 7 7 7 7 7 7 7 6 6 6 6 6 6 6 6 5 5 5 7 7
13 13 12 12 11 11 11 11 10 10 11 11 9 10 10 9 8 8 7 7 7 7 7 7 7 7 7 7 7 7 7 7 7 6 6 5 5 6 6 6 6 6
12 12 12 11 10 11 11 11 10 10 10 9 9 9 9 10 10 9 7 7 7 7 6 6 7 6 6 7 7 7 7 7 7 7 6 5 6 6 5 5 4 4
11 10 10 10 11 11 11 11 10 10 9 9 9 9 8 9 8 8 8 7 6 7 7 6 7 7 7 8 8 7 7 7 7 7 7 8 7 6 5 5 4 4
12 11 11 11 11 12 12 11 10 10 9 9 9 9 9 8 8 8 8 8 8 7 7 7 7 5 8 12 10 8 7 7 7 7 7 7 7 7 5 5 5 5
12 12 11 12 11 11 11 11 11 9 10 10 10 9 9 9 9 9 8 8 9 8 8 7 6 6 12 13 13 13 9 7 8 7 7 7 7 7 6 5 4 4
12 12 12 11 11 12 12 11 10 10 11 10 10 10 8 8 9 9 8 8 8 8 8 7 7 9 14 14 14 14 11 8 7 7 7 7 7 7 6 6 6 5
12 13 12 11 11 12 11 11 10 11 11 11 11 10 8 9 9 9 8 8 8 9 8 7 6 11 14 15 14 14 13 10 6 7 8 7 7 7 7 6 6 6
12 13 12 12 11 11 11 11 11 12 11 10 9 9 10 9 8 9 8 8 9 9 8 7 6 11 15 15 15 14 13 10 6 7 7 7 7 7 6 6 6 7
12 12 12 11 12 12 11 10 11 10 11 10 10 10 10 10 10 9 9 9 8 8 8 7 6 13 15 16 15 14 14 10 6 6 6 6 6 7 7 8 7 6
13 12 11 11 12 12 11 11 10 11 11 9 10 9 8 8 7 8 9 8 8 8 8 7 5 13 15 15 15 15 14 8 7 7 6 6 6 6 6 7 7 7
13 13 12 12 12 12 12 11 11 11 10 9 10 9 9 8 8 8 8 9 9 8 9 7 6 10 13 15 15 16 11 7 6 6 5 6 6 6 6 6 6 6
12 13 13 12 12 13 12 10 9 8 9 9 11 9 8 8 8 7 7 9 10 10 10 10 7 10 14 15 16 16 12 8 7 7 6 4 5 5 6 6 6 11
12 12 13 13 13 12 11 11 10 9 8 7 8 9 9 8 8 8 7 6 8 9 10 11 9 9 12 14 16 15 11 8 8 7 7 7 8 7 6 6 5 8
12 13 12 13 13 11 10 9 7 7 8 7 7 7 8 7 7 8 9 7 6 7 8 9 10 8 10 12 14 15 15 10 7 7 7 6 6 7 6 4 5 6
Wind_Direction
159 160 161 162 161 161 160 158 157 154 151 145 142 149 147 150 143 132 130 127 132 132 133 129 126 121 115 106 103 99 98 100 98 103 100 101 98 103 101 101 94 102
162 160 157 152 149 155 160 157 154 154 152 148 142 141 145 140 144 136 134 132 131 131 127 117 111 114 118 115 115 111 105 105 103 105 103 97 102 99 103 105 106 106
159 158 157 158 157 158 155 150 146 147 149 148 142 145 145 140 138 133 134 137 132 128 122 123 120 121 121 119 117 111 115 113 110 109 99 103 107 105 114 113 106 105
160 161 160 158 156 155 151 146 144 142 141 145 157 152 145 144 139 139 139 134 134 132 128 124 130 129 126 122 115 112 115 110 119 110 103 101 108 115 121 118 113 100
159 159 157 155 155 152 151 152 152 152 154 155 146 147 146 145 143 143 142 142 136 131 131 132 133 133 129 123 122 121 120 118 115 110 114 118 126 121 134 119 115 107
158 156 156 156 156 154 156 156 156 155 155 154 158 150 150 151 151 150 150 148 141 137 136 134 135 136 133 129 124 125 129 123 123 120 122 128 129 115 118 110 108 107
157 154 154 153 152 155 152 154 154 155 159 153 146 154 152 155 156 154 153 148 142 142 142 143 141 140 138 132 129 130 127 126 129 128 129 134 129 116 105 107 107 104
154 153 151 151 151 154 152 152 153 157 154 150 157 155 158 158 156 156 151 148 145 145 145 146 146 144 142 138 137 135 134 137 138 136 134 135 129 125 120 115 114 108
151 152 150 151 152 154 153 152 153 154 154 156 156 156 160 158 157 154 153 149 147 148 147 149 150 147 148 144 144 144 145 146 145 142 142 141 134 134 130 122 102 102
152 151 152 154 155 156 153 152 154 154 155 155 155 157 156 158 156 154 148 150 149 151 153 152 152 151 151 151 150 150 149 146 145 144 142 141 139 136 131 116 114 100
153 154 156 158 156 155 152 153 156 154 156 157 156 158 157 152 154 152 149 154 159 160 158 158 159 156 153 151 151 151 146 145 147 144 143 141 138 138 133 125 116 119
156 158 160 160 157 156 154 155 157 157 157 160 160 157 156 158 157 161 160 162 161 161 158 158 158 158 155 154 154 150 144 145 146 143 143 139 140 131 126 130 133 137
159 161 161 159 159 157 153 155 159 160 160 162 163 158 159 160 164 160 163 161 164 159 160 160 159 156 150 153 154 153 150 149 147 143 140 137 131 133 134 136 142 150
160 158 157 156 156 154 154 158 159 162 163 158 156 160 164 165 165 165 164 162 162 161 159 157 156 152 151 155 157 155 151 151 151 148 142 133 134 131 134 134 127 110
154 153 152 152 153 154 155 160 163 163 160 159 162 163 166 166 161 158 159 162 160 158 158 159 160 162 160 160 157 157 152 154 155 150 144 139 131 126 122 119 116 119
151 149 153 153 154 157 160 163 164 163 160 162 166 166 164 158 157 161 163 165 162 161 160 163 165 164 169 164 160 156 158 155 152 150 144 138 134 129 129 133 134 136
148 151 153 158 159 156 160 166 167 162 162 165 166 164 161 159 156 162 167 167 165 164 165 168 169 172 169 163 160 158 157 157 154 149 138 135 139 138 140 141 141 147
151 151 156 158 157 158 164 170 165 164 166 167 164 163 161 154 160 166 166 167 164 165 166 170 174 173 164 164 161 162 160 156 149 142 141 144 145 142 144 143 148 140
152 155 157 158 160 160 167 170 167 165 167 166 168 165 153 159 167 161 167 167 165 165 170 171 174 171 165 164 164 163 158 147 148 142 146 152 149 146 147 150 152 148
155 156 159 161 158 163 170 170 169 170 168 167 159 155 160 164 162 166 164 166 168 167 166 170 168 175 168 165 165 162 155 147 146 149 149 153 152 150 153 159 161 162
159 159 159 159 159 167 172 172 171 167 168 168 160 164 167 168 166 165 169 167 166 161 159 167 178 173 171 166 164 159 155 145 148 148 148 154 159 159 165 169 169 171
160 160 160 160 162 170 172 173 173 170 170 166 160 165 170 164 168 163 160 159 159 159 157 167 176 176 173 167 163 161 155 151 154 154 150 155 165 175 174 176 173 174
161 158 161 165 165 171 175 174 171 170 168 164 159 164 162 166 166 164 160 156 159 163 160 162 168 184 177 168 166 162 154 152 156 153 151 159 180 183 182 179 182 179
161 159 163 169 169 177 178 175 171 166 168 169 161 158 163 165 157 149 154 160 162 167 166 161 175 183 181 173 165 165 158 154 155 165 169 174 176 198 189 188 191 185
160 164 166 170 173 179 178 175 173 169 160 162 158 155 157 153 151 147 150 163 171 168 166 159 166 179 184 175 166 163 155 148 166 162 164 186 183 193 193 183 193 185
166 167 170 172 173 175 178 173 158 148 156 152 149 148 144 145 143 148 155 167 169 166 168 163 162 168 181 184 171 164 163 166 168 166 182 190 183 170 167 179 175 176